2016 TK2

Japanese version
Home page
Updated on October 10, 2016

---------------------------------------------------------------------

* Profile

Discovery Date October 1, 2016
Magnitude 21.4 mag
Discoverer Pan-STARRS 1 telescope (Haleakala)

* Orbital Elements

Epoch 2016 July 31.0 TT = JDT 2457600.5                 MPC
M 359.81871              (2000.0)            P               Q
n   0.03539220     Peri.    5.34018     +0.79683283     -0.09900918
a   9.1875064      Node   323.37805     -0.58472732     -0.37479351
e   0.5519609      Incl.   92.34606     -0.15215586     +0.92180638
P  27.85           H   15.0           G   0.15           U   4

* Magnitudes Graph

        H = 15.0  G = 0.15

---------------------------------------------------------------------

The orbital elements are published on M.P.E.C. 2016-T33.
The magnitudes graphs are made with Comet for Windows.

---------------------------------------------------------------------

Copyright(C) Seiichi Yoshida (comet@aerith.net). All rights reserved.